{"data":{"norad_id":64790,"intl_designator":"2025-150A","name":"STARLINK-34629","alt_names":[],"object_type":"PAYLOAD","status":"ACTIVE","operator":null,"country":"US","launch_date":"2025-07-16","launch_site_code":"AFWTR","launch_vehicle":null,"mission":null,"orbit_class":"UNKNOWN","rcs_meters":null,"size_class":null,"mass_kg":null,"dimensions":null,"purposes":["comms"],"wikipedia_slug":null,"has_3d_model":false,"image_url":null,"decayed_at":null,"tle_current":{"epoch":"2026-09-20T14:07:51.065472Z","epoch_age_seconds":120270,"freshness":"FRESH","line1":"1 64790U 25150A   26263.58878548  .00001325  00000+0  11882-3 0  9994","line2":"2 64790  70.0041   2.9410 0003005 252.0881 107.9950 14.98331167 65713","mean_motion":14.98331167,"eccentricity":0.0003005,"inclination_deg":70.0041,"raan_deg":2.941,"arg_perigee_deg":252.0881,"mean_anomaly_deg":107.995,"bstar":0.00011882,"rev_number":6571,"period_min":96.106924271168,"perigee_km":569.96375021625,"apogee_km":574.14081397479,"semimajor_km":6950.1892820955,"source":"CELESTRAK","updated_at":"2026-09-21T09:00:35.442196Z"}}}